User: anonymous
Location: Fort Wayne
(41.1310°N, 85.1290°W)
Time: 17:17:28
(UTC-04:00)
Language:

Cosmos 1953 - Orbit

View from above orbital plane
View from above orbital plane
View from above satellite
View from above satellite

Ground track
Ground track

The orbit data is extracted from the following two-line orbital elements,

1 19210U 88050A   14244.75068668  .00002211  00000-0  16596-3 0  4952
2 19210 082.5189 300.1391 0016009 129.8246 230.4391 15.02062116424582
Epoch (UTC): 01 September 2014 18:00:59
Eccentricity: 0.0016009
inclination: 82.5189°
perigee height: 549 km
apogee height: 571 km
right ascension of ascending node: 300.1391°
argument of perigee: 129.8246°
revolutions per day: 15.02062116
mean anomaly at epoch: 230.4391°
orbit number at epoch: 42458

The dashed part of the orbit path shows where the satellite is in the earth's shadow,  

DLR